This is the latest recevied weather packets stored in our database for station/object KC5DAQ-29. If no packets are shown the sender has not sent any weather packets the latest 1 day(s).
| Time | Temp. | Humidity | Pressure | Rain* | Wind** | Luminosity | Snow |
|---|---|---|---|---|---|---|---|
| 1777980602 | 23.33° C | 100% | 1006 hPa | 0 mm | 0.45 m/s, 171° | 0 W/m² | - |
| 1777980543 | 23.33° C | 100% | 1005.8 hPa | 0 mm | 0.45 m/s, 152° | 0 W/m² | - |
| 1777980482 | 23.33° C | 100% | 1005.8 hPa | 0 mm | 0.89 m/s, 195° | 0 W/m² | - |
| 1777980423 | 23.33° C | 100% | 1005.8 hPa | 0 mm | 0.89 m/s, 159° | 0 W/m² | - |
| 1777980363 | 23.33° C | 100% | 1005.7 hPa | 0 mm | 0.89 m/s, 169° | 0 W/m² | - |
| 1777980304 | 23.33° C | 100% | 1005.8 hPa | 0 mm | 0.89 m/s, 168° | 0 W/m² | - |
| 1777980242 | 23.33° C | 100% | 1005.9 hPa | 0 mm | 0.89 m/s, 158° | 0 W/m² | - |
| 1777980183 | 23.33° C | 100% | 1005.9 hPa | 0 mm | 0.89 m/s, 157° | 0 W/m² | - |
| 1777980123 | 23.33° C | 100% | 1005.9 hPa | 0 mm | 0.45 m/s, 159° | 0 W/m² | - |
| 1777980064 | 23.33° C | 100% | 1005.9 hPa | 0 mm | 0.89 m/s, 155° | 0 W/m² | - |
| 1777980004 | 23.33° C | 100% | 1005.8 hPa | 0 mm | 0.89 m/s, 166° | 0 W/m² | - |
| 1777979943 | 23.33° C | 100% | 1005.9 hPa | 0 mm | 0.45 m/s, 175° | 0 W/m² | - |
| 1777979881 | 23.33° C | 100% | 1005.9 hPa | 0 mm | 0.89 m/s, 183° | 0 W/m² | - |
| 1777979823 | 23.33° C | 100% | 1005.9 hPa | 0 mm | 0.45 m/s, 216° | 0 W/m² | - |
| 1777979762 | 23.33° C | 100% | 1006 hPa | 0 mm | 0.45 m/s, 227° | 0 W/m² | - |
| 1777979703 | 23.33° C | 100% | 1005.9 hPa | 0 mm | 0.45 m/s, 164° | 0 W/m² | - |
| 1777979643 | 23.33° C | 100% | 1005.9 hPa | 0 mm | 0.89 m/s, 182° | 0 W/m² | - |
| 1777979582 | 23.33° C | 100% | 1005.9 hPa | 0 mm | 0.89 m/s, 204° | 0 W/m² | - |
| 1777979523 | 23.33° C | 100% | 1005.9 hPa | 0 mm | 0.45 m/s, 147° | 0 W/m² | - |
| 1777979463 | 23.33° C | 100% | 1005.9 hPa | 0 mm | 0.89 m/s, 220° | 0 W/m² | - |
| 1777979405 | 23.33° C | 100% | 1005.8 hPa | 0 mm | 0.89 m/s, 162° | 0 W/m² | - |
| 1777979344 | 23.33° C | 100% | 1005.8 hPa | 0 mm | 0.89 m/s, 206° | 0 W/m² | - |
| 1777979282 | 23.33° C | 100% | 1005.8 hPa | 0 mm | 0.89 m/s, 202° | 0 W/m² | - |
| 1777979103 | 22.78° C | 100% | 1005.9 hPa | 0 mm | 0 m/s | - | - |
| 1777979043 | 22.78° C | 100% | 1005.9 hPa | 0 mm | 0 m/s | - | - |
* Rain latest hour (hover to see other rain measurements)
** Current wind speed in m/s (hover to see current wind gust speed)